Flag for India Weather past 2 weeks in Kapurthala, Punjab, India

Now
81 °F

Fog.


Feels Like: 88 °F
Forecast: 76 / 100 °F
Wind: No wind

Location: Amritsar Airport

Current Time: Sep 1, 2015 at 5:32:46 AM

Latest Report: Sep 1, 2015 at 4:30 AM


Visibility: 2 mi

Pressure: 29.59 "Hg

Humidity: 94%

Dew point: 79 °F

Location of KapurthalaLocation

Historic Weather in Kapurthala — Graph

°F

Kapurthala temperature yesterday

Maximum temperature yesterday: 93 °F (at 2:30 PM)
Minimum temperature yesterday: 77 °F (at 2:30 AM)
Average temperature yesterday: 85 °F

Past Weeks' High & Low Weather Summary

 TemperatureHumidityPressure
High97 °F (Aug 27, 1:00 PM)100% (Aug 17, 2:00 AM)29.71 "Hg (Aug 17, 2:00 AM)
Low75 °F (Aug 21, 5:00 PM)44% (Aug 29, 1:30 PM)29.53 "Hg (Aug 20, 5:00 PM)
Average86 °F81%29.61 "Hg
* Reported Aug 17 2:00 AM — Sep 1 2:00 AM, Kapurthala, Weather by CustomWeather, © 2015

Note: Actual official high and low records may vary slightly from our data, if they occured in-between our weather recording intervals... More about our weather records

Advertising

Kapurthala weather history for previous 24 hours

 ConditionsComfort  
Time TempWeatherWind HumidityBarometerVisibility
2:00 AM
Tue, Sep 1
82 °FFog.No wind89%29.59 "Hg2 mi
1:30 AM81 °FFog.No wind94%29.59 "Hg2 mi
12:30 AM82 °FFog.No wind89%29.62 "Hg2 mi
12:00 AM82 °FFog.No wind89%29.62 "Hg2 mi
11:30 PM
Mon, Aug 31
82 °FFog.No wind89%29.62 "Hg2 mi
11:00 PM82 °FFog.No wind84%29.62 "Hg2 mi
10:30 PM84 °FFog.No wind79%29.62 "Hg2 mi
10:00 PM84 °FFog.No wind79%29.62 "Hg2 mi
9:30 PM84 °FFog.No wind79%29.62 "Hg2 mi
9:00 PM84 °FFog.2 mph84%29.62 "Hg2 mi
8:30 PM84 °FFog.No wind84%29.62 "Hg2 mi
8:00 PM84 °FClear.No wind84%29.62 "Hg2 mi
7:30 PM86 °FClear.1 mph79%29.62 "Hg3 mi
7:00 PM88 °FFog.5 mph75%29.59 "Hg3 mi
6:30 PM90 °FClear.No wind75%29.62 "Hg4 mi
6:00 PM90 °FClear.5 mph71%29.62 "Hg4 mi
5:30 PM91 °FClear.5 mph63%29.62 "Hg4 mi
5:00 PM91 °FClear.7 mph59%29.62 "Hg4 mi
4:30 PM93 °FClear.5 mph59%29.62 "Hg4 mi
4:00 PM93 °FClear.5 mph59%29.62 "Hg4 mi
3:30 PM93 °FClear.6 mph56%29.65 "Hg4 mi
3:00 PM93 °FClear.7 mph56%29.65 "Hg4 mi
2:30 PM93 °FClear.7 mph56%29.65 "Hg4 mi
2:00 PM91 °FClear.6 mph59%29.68 "Hg4 mi
1:30 PM91 °FClear.6 mph59%29.68 "Hg4 mi
1:00 PM91 °FClear.3 mph56%29.68 "Hg4 mi
11:00 AM88 °FClear.3 mph66%29.71 "Hg4 mi
10:30 AM88 °FClear.6 mph66%29.71 "Hg4 mi
10:00 AM86 °FHaze.No wind62%29.68 "Hg3 mi
9:00 AM84 °FScattered clouds.1 mph66%29.68 "Hg2 mi
8:30 AM82 °FFog.1 mph70%29.68 "Hg2 mi
8:00 AM81 °FFog.No wind74%29.68 "Hg2 mi
7:30 AM79 °FFog.1 mph79%29.65 "Hg2 mi
7:00 AM79 °FFog.No wind79%29.65 "Hg2 mi
6:30 AM77 °FFog.No wind83%29.65 "Hg2 mi
6:00 AM77 °FFog.No wind89%29.62 "Hg2 mi
5:30 AM77 °FFog.No wind89%29.62 "Hg2 mi
Weather by CustomWeather, © 2015

See weather overviewHow to use our weather pages